Laconia, NH

12:21 AM EDT on June 24, 2018 (GMT -0400)
Laconia Municipal

Weather History for KLCI - September, 2016

Change the Weather History Date:

Monday, September 19, 2016

  Actual Average Record
Temperature  
Mean Temperature 67 °F -  
Max Temperature 70 °F 70 °F 85 °F (1992)
Min Temperature 64 °F 49 °F 33 °F (2014)
Cooling Degree Days 2    
Growing Degree Days 17 (Base 50)    
Moisture  
Dew Point 66 °F    
Average Humidity 95    
Maximum Humidity 100    
Minimum Humidity 87    
Precipitation  
Precipitation 0.76 in - - ()
Sea Level Pressure  
Sea Level Pressure 30.10 in    
Wind  
Wind Speed 1 mph (NE)    
Max Wind Speed 5 mph    
Max Gust Speed -    
Visibility 8 miles    
Events Rain    
Averages and records for this station are not official NWS values.
T = Trace of Precipitation, MM = Missing Value Source: NWS Daily Summary

Daily Weather History Graph

Daily Weather History Graph

Search for Another Location

Airport or City:

Astronomy

Sep. 19, 2016 Rise Set
Actual Time 6:30 AM EDT 6:47 PM EDT
Civil Twilight 6:01 AM EDT 7:16 PM EDT
Nautical Twilight 5:27 AM EDT 7:49 PM EDT
Astronomical Twilight 4:53 AM EDT 8:24 PM EDT
Moon 8:50 PM EDT (9/19) 9:42 AM EDT (9/19)
Length of Visible Light 13h 14m
Length of Day
12h 17m
Waning Gibbous, 88% of the Moon is Illuminated
Sep 19
Waning Gibbous
Sep 23
Last Quarter
Sep 30
New
Oct 9
First Quarter
Oct 16
Full

Hourly Weather History & Observations

Time (EDT) Temp. Dew Point Humidity Pressure Visibility Wind Dir Wind Speed Gust Speed Precip Events Conditions
12:56 AM 66.0 °F 64.9 °F 96% 30.09 in 6.0 mi Calm Calm - N/A   Clear
2:20 AM 64.4 °F 64.4 °F 100% 30.04 in 8.0 mi Calm Calm - N/A   Mostly Cloudy
2:56 AM 64.9 °F 64.9 °F 100% 30.07 in 6.0 mi Calm Calm - N/A   Overcast
3:42 AM 66.2 °F 66.2 °F 100% 30.06 in 5.0 mi Calm Calm - 0.13 in Rain Heavy Rain
3:54 AM 66.2 °F 66.2 °F 100% 30.06 in 4.0 mi Calm Calm - 0.19 in Rain Heavy Rain
3:56 AM 66.9 °F 66.0 °F 97% 30.10 in 4.0 mi Calm Calm - 0.21 in Rain Heavy Rain
4:11 AM 66.2 °F 66.2 °F 100% 30.05 in 2.5 mi Calm Calm - 0.06 in Rain Rain
4:47 AM 66.2 °F 66.2 °F 100% 30.05 in 4.0 mi Calm Calm - 0.18 in Rain Rain
4:56 AM 66.0 °F 66.0 °F 100% 30.09 in 4.0 mi Calm Calm - 0.19 in Rain Light Rain
5:09 AM 66.2 °F 66.2 °F 100% 30.05 in 1.0 mi East 3.5 mph - 0.02 in Rain Rain
5:19 AM 66.2 °F 66.2 °F 100% 30.05 in 2.0 mi Calm Calm - 0.03 in Rain Light Rain
5:56 AM 66.0 °F 66.0 °F 100% 30.10 in 2.5 mi Calm Calm - 0.07 in Rain Rain
6:56 AM 66.0 °F 64.0 °F 93% 30.12 in 10.0 mi Calm Calm - 0.16 in Rain Rain
7:56 AM 64.9 °F 64.0 °F 97% 30.11 in 10.0 mi Calm Calm - 0.13 in Rain Light Rain
8:56 AM 66.0 °F 64.0 °F 93% 30.11 in 10.0 mi North 3.5 mph - 0.00 in   Scattered Clouds
9:56 AM 66.9 °F 64.9 °F 93% 30.11 in 10.0 mi Calm Calm - 0.00 in   Scattered Clouds
10:17 AM 66.2 °F 64.4 °F 94% 30.08 in 10.0 mi WNW 3.5 mph - N/A   Mostly Cloudy
10:56 AM 68.0 °F 66.0 °F 93% 30.12 in 10.0 mi Calm Calm - 0.00 in Rain Light Rain
11:37 AM 68.0 °F 66.2 °F 94% 30.08 in 10.0 mi Calm Calm - 0.00 in   Overcast
11:56 AM 68.0 °F 66.0 °F 93% 30.12 in 10.0 mi NW 3.5 mph - 0.00 in   Overcast
12:10 PM 68.0 °F 64.4 °F 88% 30.08 in 10.0 mi Calm Calm - 0.00 in Rain Light Rain
12:27 PM 68.0 °F 66.2 °F 94% 30.09 in 10.0 mi Calm Calm - 0.00 in   Overcast
12:46 PM 68.0 °F 66.2 °F 94% 30.08 in 10.0 mi ENE 3.5 mph - 0.00 in   Overcast
12:56 PM 69.1 °F 66.0 °F 90% 30.12 in 10.0 mi NNE 3.5 mph - 0.00 in   Overcast
1:15 PM 68.0 °F 66.2 °F 94% 30.08 in 10.0 mi NE 3.5 mph - N/A   Overcast
1:56 PM 68.0 °F 66.0 °F 93% 30.12 in 10.0 mi ENE 3.5 mph - N/A   Overcast
2:36 PM 69.8 °F 66.2 °F 88% 30.08 in 10.0 mi NE 3.5 mph - N/A   Overcast
2:56 PM 69.1 °F 66.0 °F 90% 30.12 in 10.0 mi NNE 3.5 mph - N/A   Overcast
3:10 PM 69.8 °F 66.2 °F 88% 30.08 in 10.0 mi NE 3.5 mph - N/A   Overcast
3:56 PM 70.0 °F 66.0 °F 87% 30.11 in 10.0 mi ENE 3.5 mph - N/A   Overcast
4:11 PM 69.8 °F 66.2 °F 88% 30.07 in 10.0 mi Variable 3.5 mph - N/A   Overcast
4:39 PM 69.8 °F 66.2 °F 88% 30.07 in 10.0 mi NNE 3.5 mph - N/A   Overcast
4:56 PM 69.1 °F 66.0 °F 90% 30.11 in 10.0 mi NE 3.5 mph - N/A   Overcast
5:56 PM 69.1 °F 66.0 °F 90% 30.11 in 10.0 mi NE 3.5 mph - N/A   Mostly Cloudy
6:56 PM 69.1 °F 66.9 °F 93% 30.11 in 10.0 mi Calm Calm - N/A   Overcast
7:56 PM 66.9 °F 66.0 °F 97% 30.13 in 10.0 mi Calm Calm - N/A   Overcast
8:56 PM 66.9 °F 66.0 °F 97% 30.14 in 10.0 mi Calm Calm - N/A   Overcast
9:46 PM 66.2 °F 66.2 °F 100% 30.11 in 10.0 mi Calm Calm - N/A   Overcast
10:33 PM 66.2 °F 66.2 °F 100% 30.12 in 10.0 mi Calm Calm - 0.00 in   Overcast
10:56 PM 66.9 °F 66.0 °F 97% 30.16 in 10.0 mi Calm Calm - 0.00 in Rain Light Rain
11:18 PM 68.0 °F 66.2 °F 94% 30.11 in 10.0 mi South 4.6 mph - 0.00 in   Overcast
11:56 PM 68.0 °F 66.9 °F 96% 30.15 in 10.0 mi Calm Calm - 0.00 in   Overcast